sat.trackr.live / text

‹ back to catalog

STARLINK-11341 [DTC]

NORAD 61696 · 2024-195K

PAYLOAD ACTIVE UNKNOWN

§ Identity

Operator
Country
US
Launch date
2024-10-30
Launch site
AFWTR
Launch vehicle
Mass (kg)
RCS (m²)

Purposes: comms

External: N2YO · Heavens-Above · Gunter

§ Orbital elements

Epoch: 2026-09-21T20:11:33.687168Z

Period
91.74 min
Inclination
53.1596°
Eccentricity
0.0001082
Mean motion
15.69705241 rev/d
Perigee alt
359.0 km
Apogee alt
360.5 km
Semi-major
6,737.9 km
B*
8.3911e-7
RAAN
139.1417°
Arg perigee
93.2926°
Mean anomaly
266.8216°
Rev number
10,984

§ Raw data

STARLINK-11341 [DTC]1 61696U 24195K   26264.84136212 -.00000487  00000+0  83911-6 0  99932 61696  53.1596 139.1417 0001082  93.2926 266.8216 15.69705241109840

JSON: /api/v1/satellites/61696 · /tle

For live sub-satellite position, see the globe view (requires WebGL).

§ Visibility from observer

Set your observer location to see the next 7 days of passes ≥ 10°. The values pass through the URL so the page stays shareable.

No JS? Fill the form by hand. The geolocation button needs JavaScript.